Home   Weather   York   Past weeks

Flag for United Kingdom Past Weather in York, England, United Kingdom — Yesterday and Last 2 Weeks

Now
52 °F

Overcast.


Feels Like: 51 °F
Forecast: 42 / 58 °F
Wind: 5 mph from South

Location: Linton-On-Ouse

Current Time: Apr 28, 2017 at 9:16:41 pm

Latest Report: Apr 28, 2017 at 7:50 pm


Visibility: N/A

Pressure: 29.98 "Hg

Humidity: 58%

Dew Point: 37 °F

Location of YorkLocation

Past Weather in York — Graph

°F

York Temperature Yesterday

Maximum temperature yesterday: 55 °F (at 1:50 pm)
Minimum temperature yesterday: 39 °F (at 12:50 am)
Average temperature yesterday: 46 °F

High & Low Weather Summary for the Past Weeks

 TemperatureHumidityPressure
High59 °F (Apr 20, 2:50 pm)100% (Apr 17, 12:50 am)30.60 "Hg (Apr 17, 12:50 am)
Low30 °F (Apr 25, 3:50 am)27% (Apr 24, 6:50 pm)29.83 "Hg (Apr 14, 7:50 pm)
Average46 °F71%30.18 "Hg
* Reported Apr 13 7:50 pm — Apr 28 7:50 pm, York, Weather by CustomWeather, © 2017

Note: Actual official high and low records may vary slightly from our data, if they occured in-between our weather recording intervals... More about our weather records

Advertising

York Weather History for the Previous 24 Hours

Scroll right to see more
 ConditionsComfort  
Time TempWeatherWind HumidityBarometerVisibility
7:50 pm
Fri, Apr 28
52 °FOvercast.5 mph58%29.98 "HgN/A
6:50 pm52 °FOvercast.5 mph54%29.98 "HgN/A
5:50 pm52 °FOvercast.3 mph50%29.98 "HgN/A
4:50 pm54 °FOvercast.2 mph51%29.98 "HgN/A
3:50 pm54 °FPartly sunny.2 mph51%29.98 "HgN/A
2:50 pm54 °FPartly sunny.8 mph47%30.01 "HgN/A
1:50 pm50 °FPartly sunny.7 mph47%30.01 "HgN/A
12:50 pm50 °FPartly sunny.9 mph54%30.01 "HgN/A
11:50 am50 °FPartly sunny.9 mph54%30.04 "HgN/A
10:50 am48 °FPartly sunny.9 mph66%30.04 "HgN/A
9:50 am46 °FPassing clouds.9 mph71%30.04 "HgN/A
8:50 am45 °FScattered clouds.6 mph76%30.04 "HgN/A
7:50 am41 °FPartly sunny.5 mph81%30.04 "HgN/A
6:50 am36 °FPassing clouds.5 mph93%30.04 "HgN/A
5:50 am36 °FSunny.5 mph93%30.04 "HgN/A
4:50 am36 °FClear.3 mph93%30.04 "HgN/A
3:50 am37 °FClear.6 mph87%30.04 "HgN/A
2:50 am39 °FPassing clouds.6 mph87%30.01 "HgN/A
1:50 am43 °FOvercast.7 mph81%30.04 "HgN/A
12:50 am43 °FPassing clouds.7 mph81%30.04 "HgN/A
11:50 pm
Thu, Apr 27
45 °FPassing clouds.5 mph87%30.04 "HgN/A
10:50 pm45 °FOvercast.5 mph87%30.04 "HgN/A
9:50 pm45 °FPassing clouds.3 mph87%30.04 "HgN/A
Weather by CustomWeather, © 2017

See weather overviewHow to use our weather pages